Location: Austin
(30.3000°N, 97.7500°W)
Time: 04:04:01
(UTC-06:00)

NOSS 3-3 (A) - Pass Details

Date: 20 November 2023
Orbit: 749 x 1463 km, 63.4° (Epoch: 01 December)

Event Time Altitude Azimuth Distance (km) Brightness Sun altitude
Rises 18:47:16 0° 219° (SW) 3,186 7.6 -16.2°
Reaches altitude 10° 18:49:36 10° 224° (SW) 2,288 6.8 -16.7°
Maximum altitude 18:54:40 56° 302° (WNW) 958 4.2 -17.8°
Enters shadow 19:00:17 11° 20° (NNE) 2,526 5.9 -18.9°
